Home > Weather > Saint-Jérôme > Past weeks

Flag for Canada Past Weather in Saint-Jérôme, Quebec, Canada — Yesterday and Last 2 Weeks

Now
68 °F

Scattered clouds.


Feels Like: 68 °F
Forecast: 62 / 84 °F
Wind: 9 mph from Southwest

Location: Montreal / Mirabel

Current Time: Aug 24, 2016 at 9:57:22 AM

Latest Report: Aug 24, 2016 at 9:00 AM


Visibility: 25 mi

Pressure: 30.18 "Hg

Humidity: 83%

Dew Point: 63 °F

Location of Saint-JérômeLocation

Past Weather in Saint-Jérôme — Graph

°F

Saint-Jérôme Temperature Yesterday

Maximum temperature yesterday: 77 °F (at 4:00 PM)
Minimum temperature yesterday: 52 °F (at 6:00 AM)
Average temperature yesterday: 65 °F

High & Low Weather Summary for the Past Weeks

 TemperatureHumidityPressure
High90 °F (Aug 10, 3:00 PM)100% (Aug 13, 5:00 PM)30.23 "Hg (Aug 13, 5:00 PM)
Low52 °F (Aug 23, 6:00 AM)37% (Aug 9, 1:00 PM)29.69 "Hg (Aug 21, 5:00 PM)
Average69 °F79%29.97 "Hg
* Reported Aug 9 8:00 AM — Aug 24 8:00 AM, Saint-Jérôme, Weather by CustomWeather, © 2016

Note: Actual official high and low records may vary slightly from our data, if they occured in-between our weather recording intervals... More about our weather records

Advertising

Saint-Jérôme Weather History for the Previous 24 Hours

Scroll right to see more
 ConditionsComfort  
Time TempWeatherWind HumidityBarometerVisibility
8:00 AM
Wed, Aug 24
64 °FScattered clouds.5 mph88%30.19 "Hg30 mi
7:00 AM63 °FPassing clouds.5 mph94%30.18 "Hg25 mi
6:00 AM61 °FPassing clouds.3 mph94%30.17 "Hg35 mi
5:00 AM63 °FPassing clouds.6 mph88%30.16 "Hg25 mi
4:00 AM61 °FPassing clouds.2 mph94%30.16 "Hg25 mi
3:00 AM61 °FPassing clouds.5 mph94%30.15 "Hg25 mi
2:00 AM64 °FClear.3 mph83%30.16 "Hg25 mi
1:00 AM64 °FClear.No wind83%30.16 "Hg25 mi
12:00 AM66 °FClear.5 mph78%30.15 "Hg25 mi
11:00 PM
Tue, Aug 23
68 °FClear.8 mph73%30.14 "Hg25 mi
10:00 PM68 °FPassing clouds.3 mph73%30.14 "Hg25 mi
9:00 PM70 °FPassing clouds.6 mph69%30.14 "Hg25 mi
8:00 PM72 °FPassing clouds.12 mph69%30.11 "Hg25 mi
7:00 PM75 °FPassing clouds.9 mph65%30.12 "Hg45 mi
6:00 PM77 °FScattered clouds.10 mph57%30.11 "Hg45 mi
5:00 PM77 °FScattered clouds.12 mph57%30.12 "Hg45 mi
4:00 PM77 °FScattered clouds.10 mph54%30.14 "Hg45 mi
3:00 PM75 °FBroken clouds.12 mph57%30.14 "Hg45 mi
2:00 PM75 °FPassing clouds.14 mph50%30.16 "Hg45 mi
1:00 PM73 °FPassing clouds.13 mph53%30.17 "Hg45 mi
12:00 PM70 °FPassing clouds.12 mph60%30.19 "Hg45 mi
11:00 AM68 °FPassing clouds.12 mph64%30.20 "Hg45 mi
10:00 AM63 °FPassing clouds.7 mph77%30.21 "Hg45 mi
9:00 AM59 °FPassing clouds.7 mph82%30.20 "Hg25 mi
Weather by CustomWeather, © 2016

See weather overviewHow to use our weather pages